TimeEDT,TemperatureF,Dew PointF,Humidity,Sea Level PressureIn,VisibilityMPH,Wind Direction,Wind SpeedMPH,Gust SpeedMPH,PrecipitationIn,Events,Conditions,WindDirDegrees,DateUTC
12:53 AM,27.0,12.0,53,30.11,10.0,WNW,8.1,-,N/A,,Clear,290,2013-04-02 04:53:00
1:53 AM,24.1,12.0,60,30.12,10.0,WSW,8.1,-,N/A,,Clear,240,2013-04-02 05:53:00
2:53 AM,25.0,12.9,60,30.11,10.0,WSW,8.1,-,N/A,,Clear,250,2013-04-02 06:53:00
3:53 AM,25.0,12.9,60,30.11,10.0,West,6.9,-,0.00,,Mostly Cloudy,260,2013-04-02 07:53:00
4:53 AM,25.0,15.1,66,30.11,10.0,WSW,9.2,-,N/A,,Mostly Cloudy,250,2013-04-02 08:53:00
5:53 AM,25.0,15.1,66,30.13,10.0,West,9.2,-,N/A,,Clear,280,2013-04-02 09:53:00
6:53 AM,25.0,16.0,69,30.14,10.0,West,6.9,-,N/A,,Clear,270,2013-04-02 10:53:00
7:53 AM,27.0,17.1,66,30.17,10.0,WNW,9.2,-,N/A,,Clear,290,2013-04-02 11:53:00
8:53 AM,30.9,16.0,54,30.19,10.0,WNW,9.2,-,N/A,,Clear,290,2013-04-02 12:53:00
9:53 AM,34.0,10.9,38,30.19,10.0,WNW,9.2,-,N/A,,Clear,290,2013-04-02 13:53:00
10:53 AM,37.0,10.9,34,30.19,10.0,WNW,13.8,24.2,N/A,,Mostly Cloudy,300,2013-04-02 14:53:00
11:53 AM,37.0,10.0,33,30.19,10.0,NW,15.0,24.2,N/A,,Overcast,310,2013-04-02 15:53:00
12:53 PM,39.0,12.0,33,30.18,10.0,WNW,18.4,24.2,N/A,,Overcast,300,2013-04-02 16:53:00
1:53 PM,41.0,10.9,29,30.16,10.0,WNW,17.3,25.3,N/A,,Mostly Cloudy,290,2013-04-02 17:53:00
2:53 PM,43.0,10.9,27,30.15,10.0,West,17.3,24.2,N/A,,Mostly Cloudy,280,2013-04-02 18:53:00
3:53 PM,43.0,10.0,26,30.14,10.0,West,18.4,27.6,N/A,,Mostly Cloudy,280,2013-04-02 19:53:00
4:53 PM,45.0,10.9,25,30.13,10.0,WNW,16.1,25.3,N/A,,Overcast,290,2013-04-02 20:53:00
5:53 PM,42.1,10.0,27,30.15,10.0,WNW,16.1,-,N/A,,Mostly Cloudy,300,2013-04-02 21:53:00
6:53 PM,41.0,10.0,28,30.16,10.0,WNW,16.1,25.3,N/A,,Scattered Clouds,300,2013-04-02 22:53:00
7:53 PM,39.0,10.0,30,30.18,10.0,WNW,13.8,-,N/A,,Partly Cloudy,300,2013-04-02 23:53:00
8:53 PM,37.0,10.9,34,30.20,10.0,WNW,13.8,-,N/A,,Scattered Clouds,290,2013-04-03 00:53:00
9:53 PM,35.1,12.0,39,30.23,10.0,WNW,16.1,21.9,N/A,,Partly Cloudy,290,2013-04-03 01:53:00
10:53 PM,33.1,12.9,43,30.25,10.0,WNW,10.4,-,N/A,,Clear,300,2013-04-03 02:53:00
11:53 PM,30.9,12.0,46,30.26,10.0,NW,8.1,-,N/A,,Clear,310,2013-04-03 03:53:00